Regional Weather Roundup
Issued by NWS

Home | Current Version | Previous Version | Text Only | Print | Product List | Glossary On
Versions: 1 2 3 4 5 6 7 8 9 10 11 12 13 14 15 16 17 18 19 20 21 22 23 24 25 26 27 28 29 30 31 32 33 34 35 36 37 38 39 40 41 42 43 44 45 46 47 48 49 50
000
ASUS46 KLOX 192012
RWRCA

SOUTHERN CALIFORNIA WEATHER ROUNDUP
NATIONAL WEATHER SERVICE OXNARD CALIFORNIA
1200 PM PST FRI DEC 19 2014

NOTE: "FAIR" INDICATES FEW OR NO CLOUDS BELOW 12,000 FEET WITH NO
SIGNIFICANT WEATHER AND/OR OBSTRUCTIONS TO VISIBILITY.

  -  STATIONS PRECEEDED BY AN ASTERISK (*) ARE NOT NWS OR FAA
     STATIONS AND ARE NOT SUBJECT TO NWS AND FAA QUALITY CONTROL.

CAZ041-042-087-192100-
LA AND ORANGE COUNTY COASTAL AREAS


CITY           SKY/WX    TMP DP  RH WIND       PRES   REMARKS
L.A. DOWNTOWN  SUNNY     65  45  48 CALM      30.20F
L.A. AIRPORT   PTSUNNY   63  48  58 W8        30.21F
LONG BEACH     SUNNY     65  47  52 CALM      30.20F

CITY           SKY/WX    TMP DP  RH WIND       PRES   REMARKS
AVALON           N/A     63 N/A N/A N5          N/A
FULLERTON      SUNNY     66  45  46 CALM      30.19F
*GETTY CENTER    N/A     61  45  55 S6          N/A
HAWTHORNE      SUNNY     65  46  50 W6        30.21F
*LEO CARRILLO    N/A     65  55  69 SW7         N/A
*LOS ALAMITOS  MOSUNNY   65  48  54 VRB3      30.20F
*REDONDO BEACH   N/A     66  51  58 W2        30.20F
SANTA ANA      MOSUNNY   68  46  45 VRB5      30.19F
STA MONICA APT SUNNY     65  45  48 W6        30.22S
TORRANCE       MOSUNNY   64  52  63 W12       30.22F
*UCLA            N/A     63  43  48 N2        30.18F

$$

CAZ547-548-048-192100-
LA COUNTY VALLEYS AND INLAND EMPIRE


CITY           SKY/WX    TMP DP  RH WIND       PRES   REMARKS
BURBANK        SUNNY     62  44  51 SW3       30.21S
VAN NUYS       SUNNY     62  44  51 NW3       30.21F

CITY           SKY/WX    TMP DP  RH WIND       PRES   REMARKS
CORONA AIRPORT CLEAR     64  46  52 CALM      30.20F
*CHATSWORTH      N/A     64  46  52 CALM      30.21F
CHINO          MOSUNNY   62  47  57 CALM      30.21F
*CLAREMONT       N/A     66  43  42 S2          N/A
MARCH AFB      SUNNY     58  44  60 VRB1      30.19F
*NORTHRIDGE      N/A     63  41  45 SW2         N/A
ONTARIO        MOSUNNY   61  41  47 CALM      30.19F
*PASADENA        N/A     63  48  59 NE5         N/A
POMONA         SUNNY     59  43  55 CALM      30.23F
RIVERSIDE      SUNNY     61  43  51 W3        30.19F
SAN BERNARDINO NOT AVBL
*SAN GABRIEL     N/A     66  42  40 CALM      30.19F
*SAN RAFAEL HI   N/A     64  47  53 E2          N/A
*SAUGUS          N/A     57  43  59 SW2         N/A
*WHITEMAN AP   NOT AVBL
*WOODLAND HILL   N/A     64  45  48 SW5         N/A

$$

CAZ054-055-192100-
LA AND SAN BERNARDINO COUNTY MOUNTAINS


CITY           SKY/WX    TMP DP  RH WIND       PRES   REMARKS
*ACTON           N/A     61  41  47 SW2         N/A
*BIG BEAR AIRP CLEAR     46  19  34 W7        30.20F
*BIG PINES       N/A     52  25  35 W2          N/A
MT WILSON NWS    N/A     45  41  87 MISG        N/A
SANDBERG       MOSUNNY   52  35  52 SW14      30.23F

$$

CAZ028-029-059-060-099-192100-
ANTELOPE VALLEY AND SURROUNDING AREAS


CITY           SKY/WX    TMP DP  RH WIND       PRES   REMARKS
LANCASTER      MOSUNNY   52  40  63 CALM      30.21F
PALMDALE       MOSUNNY   51  38  60 CALM      30.21F
*POPPY PARK      N/A     61  43  51 N2          N/A

CITY           SKY/WX    TMP DP  RH WIND       PRES   REMARKS
29 PALMS       SUNNY     53  35  50 SW3       30.26F
BARSTOW/DAGGET SUNNY     54  38  54 N3        30.20F
BISHOP         PTSUNNY   45  32  60 S5        30.17F
CHINA LAKE     PTSUNNY   49  38  65 CALM      30.19F
EDWARDS AFB    PTSUNNY   50  38  62 VRB3      30.20F
MOJAVE         FAIR      48  37  66 SW3       30.21F
NEEDLES        SUNNY     58  41  53 E6        30.21F
VICTORVILLE      N/A     52  36  54 CALM      30.18F

$$

CAZ039-040-192100-
VENTURA AND SANTA BARBARA COUNTY COAST


CITY           SKY/WX    TMP DP  RH WIND       PRES   REMARKS
CAMARILLO      PTSUNNY   63  44  50 W5        30.23F
NWS OXNARD       N/A     63  47  56 W7        30.22F
OXNARD AIRPORT PTSUNNY   63  50  62 W9        30.23F
*POINT MUGU    PTSUNNY   65  49  56 SW7       30.24F
SBA APT/GOLETA CLOUDY    63  52  67 SW5       30.22F
*SANTA BARBARA   N/A     65  50  58 CALM      30.29F
*VENTURA         N/A     63  50  62 CALM      30.26S

$$

CAZ044-045-192100-
VENTURA COUNTY VALLEYS


CITY           SKY/WX    TMP DP  RH WIND       PRES   REMARKS
*SIMI VALLEY     N/A     61  47  59 SW3       30.21F
*OJAI            N/A     61  49  64 CALM      30.18F
*FILLMORE        N/A     62  48  60 CALM      30.12F

$$

CAZ053-192100-
VENTURA COUNTY MOUNTAINS


CITY           SKY/WX    TMP DP  RH WIND       PRES   REMARKS
*LOCKWOOD VLY    N/A     50  19  29 CALM        N/A
*ROSE VALLEY     N/A     52  45  76 MISG        N/A

$$

CAZ034-035-036-192100-
CENTRAL COAST AND SANTA YNEZ VALLEY


CITY           SKY/WX    TMP DP  RH WIND       PRES   REMARKS
SAN LUIS OBISP CLOUDY    60  51  72 SE6       30.22F
SANTA MARIA    CLOUDY    62  50  64 SE5       30.22

CITY           SKY/WX    TMP DP  RH WIND       PRES   REMARKS
*CAL POLY SLO    N/A     59  52  77 E2          N/A
*LOMPOC        CLOUDY    61  50  67 E3        30.22F
*PISMO BEACH     N/A     62  54  75 SW1       30.22F
*SANTA YNEZ    FAIR      57  48  72 CALM      30.23F

$$

CAZ037-038-051-192100-
SAN LUIS OBISPO COUNTY INTERIOR AND CUYAMA VALLEY


CITY           SKY/WX    TMP DP  RH WIND       PRES   REMARKS
*CUYAMA          N/A     51  45  81 CALM      30.22F
PASO ROBLES    CLOUDY    55  49  80 SE3       30.20F

$$

CAZ032-033-061-192100-
SOUTHERN DESERTS


CITY           SKY/WX    TMP DP  RH WIND       PRES   REMARKS
BLYTHE         SUNNY     60  43  53 NE3       30.20F
IMPERIAL       SUNNY     64  44  48 N3        30.19F
PALM SPRINGS   SUNNY     65  37  35 E5        30.20F
THERMAL        SUNNY     65  40  39 VRB3      30.18F

$$

ELSEWHERE ACROSS THE WESTERN UNITED STATES AND MEXICO


CITY           SKY/WX    TMP DP  RH WIND       PRES   REMARKS
DENVER, CO     MOSUNNY   45  11  25 S6        30.01F
GRAND CANYON,  PTSUNNY   43  22  43 VRB5      30.20F
HONOLULU, HI   MOSUNNY   81  64  57 E15       30.12R
KAHULUI, MAUI  MOSUNNY   81  63  54 VRB7      30.10F
LAKE TAHOE, CA LGT SNOW  37  31  78 S6        30.13R WCI  32
LAS VEGAS, NV  MOSUNNY   53  37  54 CALM      30.17F
MAMMOTH LAKES, FAIR      37  27  65 E9        30.15F WCI  31
MEXICO CITY, M MOSUNNY   75  34  22 SE9       30.22F
PHOENIX, AZ    PTSUNNY   60  39  45 E5        30.17F
PORTLAND, OR   MOSUNNY   50  44  80 S13G20    30.03S
RENO, NV       LGT RAIN  45  38  76 W9        30.11S
SALT LAKE CITY PTSUNNY   44  27  51 S13       30.14F
SAN DIEGO, CA  MOSUNNY   67  46  47 NW5       30.19F
SAN FRANCISCO, CLOUDY    58  57  97 SE5       30.13F
SAN JOSE, CA   LGT RAIN  56  51  84 SE10      30.16F
SEATTLE, WA    PTSUNNY   50  41  71 SW13G21   29.95R
TIJUANA, MEX   SUNNY     64  41  42 W3        30.20F

$$

STATION/POSITION TIME  TEMP    WIND        PRES    VSBY  WAVE
                       AIR SEA DIR/SP/G                  HT/PER
                 (UTC) (F)     (DEG/KT/KT) (MB)    (MI)  (FT/S)
POINT ARGUELLO B NOT AVBL
WEST SANTA BARBA 2000   60 63   CALM  /  2 1023.1F         5/13
POINT CONCEPTION NOT AVBL
EAST SANTA BARBA NOT AVBL
SANTA MONICA BAY 2000   60 64  310/  4/  6 1024.0F         3/12


USA.gov is the U.S. government's official web portal to all federal, state and local government web resources and services.